Regional Weather Roundup
Issued by NWS

Home | Current Version | Previous Version | Graphics & Text | Print | Product List | Glossary On
Versions: 1 2 3 4 5 6 7 8 9 10 11 12 13 14 15 16 17 18 19 20 21 22 23 24 25 26 27 28 29 30 31 32 33 34 35 36 37 38 39 40 41 42 43 44 45 46 47 48 49 50
000
ASUS43 KIND 291409
RWRIN

WEATHER ROUNDUP FOR INDIANA
NATIONAL WEATHER SERVICE INDIANAPOLIS IN
1000 AM EDT FRI MAY 29 2015

NOTE: "FAIR" INDICATES FEW OR NO CLOUDS BELOW 12,000 FEET WITH NO
SIGNIFICANT WEATHER AND/OR OBSTRUCTIONS TO VISIBILITY.

* - STATION DOES NOT REPORT WEATHER SUCH AS PRECIPITATION OR FOG.

+ - STATION NOT QUALITY CONTROLLED BY THE NATIONAL WEATHER SERVICE.
    USE DATA WITH CAUTION...ESPECIALLY DEWPOINT AND RELATIVE
    HUMIDITY OBSERVATIONS.

INZ001>003-010>013-019-020-291500-
NORTHWEST INDIANA

CITY           SKY/WX    TMP DP  RH WIND       PRES   REMARKS
GARY /AIRPORT/ PTSUNNY   75  66  73 S8        30.07R
KNOX *+        PTSUNNY   73  63  68 S10       30.08S
LA PORTE +     MOSUNNY   77  66  68 S8        30.09S
MICHIGAN CITY+ MOSUNNY   73  63  68 S7        30.08R
MONTICELLO +   PTSUNNY   73  67  82 S6        30.10R
RENSSELAER +   PTSUNNY   75  68  78 S9        30.08F
VALPARAISO     MOSUNNY   76  65  68 SW10      30.09R

$$

LMZ046-743>745-291500-
SOUTHERN LAKE MICHIGAN

STATION/POSITION TIME  TEMP    WIND        PRES    WAVE
                       AIR SEA DIR/SP/G            HT
                 (UTC) (F)     (DEG/KT/KT) (MB)    (FT)
BURNS HARBOR     1400   73     210/ 10/ 13 1018.6S
MICHIGAN CITY    1400   73     170/ 10/ 12   N/A
5NW MICH CITY    1400   64 55  200/  6/  8   N/A     1

$$

INZ004-005-014>016-021>024-291500-
NORTH CENTRAL INDIANA

CITY           SKY/WX    TMP DP  RH WIND       PRES   REMARKS
ELKHART        MOSUNNY   73  64  73 S7        30.10S
GOSHEN         PTSUNNY   75  65  70 S12       30.11R
LOGANSPORT +   PTSUNNY   73  63  68 S9        30.12R
PERU/GRISSOM   PTSUNNY   74  66  75 S12       30.11R
ROCHESTER +    PTSUNNY   75  68  78 S8        30.11S
SOUTH BEND     MOSUNNY   76  65  68 S10       30.09R
WARSAW +       PTSUNNY   72  64  78 S7        30.12R

$$

INZ006>009-017-018-025>027-291500-
NORTHEAST INDIANA

CITY           SKY/WX    TMP DP  RH WIND       PRES   REMARKS
ANGOLA *+      SUNNY     73  64  73 S6        30.12S
AUBURN +       CLOUDY    73  63  68 S3        30.13R
FORT WAYNE     CLOUDY    74  66  76 S12       30.13R
HUNTINGTON +   CLOUDY    73  64  75 S7        30.13R

$$

INZ028-029-035-036-043>045-051>053-291500-
WEST CENTRAL INDIANA

CITY           SKY/WX    TMP DP  RH WIND       PRES   REMARKS
CRAWFORDSVL +  PTSUNNY   72  61  66 S8        30.11S
GREENCASTLE +  MOSUNNY   73  63  68 S7        30.12S
LAFAYETTE      PTSUNNY   74  66  76 S6        30.10R
TERRE HAUTE    PTSUNNY   75  66  73 S8        30.11R

$$

INZ030>032-037>040-046>048-054>057-064-065-291500-
CENTRAL INDIANA

CITY           SKY/WX    TMP DP  RH WIND       PRES   REMARKS
ANDERSON       SUNNY     73  63  68 S8        30.15R
CP ATTERBURY + MOSUNNY   73  66  78 S6        30.14R
COLUMBUS       MOSUNNY   73  64  73 S8        30.14R
FISHERS *+     PTSUNNY   73  68  83 SW9       30.13R
FRANKFORT +    CLOUDY    75  66  72 S5        30.12S
GREENWOOD *+   PTSUNNY   73  63  68 S6        30.14
INDIANAPOLIS   PTSUNNY   72  64  76 S6        30.11R
-EAGLE CREEK   PTSUNNY   72  65  78 VRB6      30.12R
KOKOMO *+      PTSUNNY   73  64  73 S12       30.12R
MARION +       PTSUNNY   73  63  71 S12       30.14R
MT COMFORT *+  PTSUNNY   73  61  64 S8        30.14R
SHELBYVILLE    PTSUNNY   76  66  71 S8        30.13R
ZIONSVILLE +   PTSUNNY   74  63  69 S9        30.13R

$$

INZ033-034-041-042-049-050-058-059-291500-
EAST CENTRAL INDIANA

CITY           SKY/WX    TMP DP  RH WIND       PRES   REMARKS
MUNCIE         PTSUNNY   75  66  73 S9        30.13R

$$

INZ060-061-067>069-081>083-085>088-291500-
SOUTHWEST INDIANA

CITY           SKY/WX    TMP DP  RH WIND       PRES   REMARKS
EVANSVILLE     CLOUDY    73  66  78 S10       30.14R
HUNTINGBURG *+ CLOUDY    72  64  78 S13       30.15R
WASHINGTON +   CLOUDY    72  65  79 S13       30.12S

$$

INZ062-063-066-070>080-084-089>092-291500-
SOUTH CENTRAL AND SOUTHEAST INDIANA

CITY           SKY/WX    TMP DP  RH WIND       PRES   REMARKS
BLOOMINGTON    MOSUNNY   74  66  76 S7        30.13R
MADISON *+     MOSUNNY   72  64  78 S6        30.18R
NORTH VERNON + CLOUDY    75  73  94 S9        30.16R
SEYMOUR +      PTSUNNY   75  66  73 S10       30.14R

$$




USA.gov is the U.S. government's official web portal to all federal, state and local government web resources and services.